[[{"header":{"parameterUnit":"m.s-1","parameterCategory":1,"la1":30.2991,"la2":30.254,"lo1":-89.0895,"lo2":-89.0444,"dy":0.0017,"dx":0.0017,"nx":28,"ny":28,"refTime":"2025-07-18T03:00:00:Z","depth":0,"parameterNumber":2,"parameterNumberName":"U-component_of_WINDS"},"data":[0,0,0,0,0,0,0,0,0,0,0,0,0,0,0,0,0,0,0,0,0,0,0,0,0,0,0,0,0,0,0,0,0,0,0,0,0,0,0,0,0,0,0,0,0,0,0,0,0,0,0,0,0,0,0,0,0,0,3.4301,3.4301,0,3.4344,3.4344,3.4345,3.4267,3.4264,3.4262,3.4259,3.4304,3.4307,3.4311,0,0,0,0,0,0,0,0,0,0,0,0,0,3.4148,3.4151,3.43,3.4301,3.4302,3.4344,3.4344,3.4345,3.4267,3.4264,3.4261,3.4258,3.4303,3.4307,3.4311,0,0,0,0,0,0,0,0,0,0,0,0,0,3.4205,3.4152,3.43,3.4268,3.4265,3.4344,3.4344,3.4345,3.4268,3.4264,3.426,3.4257,3.4301,3.4307,3.4312,3.4424,0,0,3.4329,3.4331,0,0,0,0,0,0,0,0,3.4202,3.4211,3.4272,3.427,3.4268,3.4296,3.4307,3.4371,3.4269,3.4267,3.4259,3.4255,3.4304,3.4309,3.4326,3.4426,3.4428,3.4329,3.4332,3.4335,3.4336,0,0,0,0,0,0,0,3.4198,3.4209,3.4318,3.4273,3.427,3.425,3.4254,3.4319,3.4307,3.4267,3.4261,3.4268,3.4302,3.4321,3.4327,3.4428,3.4329,3.4334,3.4337,3.4339,3.4616,3.462,0,0,0,0,0,0,3.4198,3.4206,3.4316,3.4319,3.4225,3.4256,3.426,3.4291,3.4306,3.4305,3.4271,3.4264,3.4314,3.432,3.4328,3.4455,3.4335,3.434,3.4343,3.4612,3.4617,3.4622,0,0,0,0,0,0,3.4195,3.4209,3.4314,3.4261,3.4273,3.4263,3.4298,3.4294,3.4312,3.4309,3.4307,3.4292,3.4311,3.432,3.4399,3.4456,3.4342,3.4347,3.4607,3.4614,3.462,3.4715,0,0,0,0,0,0,3.4191,3.4208,3.4252,3.4262,3.4276,3.4386,3.4301,3.4297,3.4322,3.4313,3.4328,3.4327,3.4308,3.4391,3.4405,3.4461,3.4351,3.4602,3.461,3.4618,3.4706,3.4723,3.4738,0,0,0,0,0,3.4186,3.4278,3.4254,3.4268,3.433,3.439,3.4397,3.4374,3.4327,3.4369,3.4366,3.4327,3.4448,3.44,3.4414,3.4474,3.4599,3.4608,3.4617,3.4699,3.472,3.4737,0,0,0,0,0,0,3.4276,3.4279,3.4253,3.4351,3.4371,3.4377,3.443,3.4397,3.4431,3.4421,3.4391,3.4395,3.4479,3.4485,3.4431,3.458,3.4515,3.4528,3.4573,3.4593,3.4608,3.4604,3.4356,0,0,0,0,0,3.4307,3.4356,3.4356,3.4443,3.4453,3.444,3.4465,3.4445,3.4464,3.4472,3.4476,3.4495,3.4537,3.4566,3.4605,3.4707,3.4707,3.4755,3.4771,3.4784,3.4794,3.4844,3.4863,3.4652,3.4652,3.4652,0,0,3.4372,3.438,3.4413,3.4461,3.4473,3.4523,3.4448,3.4505,3.454,3.4481,3.4554,3.4557,3.4577,3.4667,3.4707,3.4674,3.4852,3.4795,3.4806,3.4809,3.4855,3.4875,3.4893,3.4658,3.4657,3.4656,0,0,3.4515,3.4528,3.4598,3.4612,3.4631,3.4621,3.4638,3.4648,3.4647,3.472,3.4675,3.4717,3.4792,3.4806,3.4823,3.4967,3.493,3.4981,3.5062,3.5111,3.5128,3.5142,3.519,3.5207,3.4992,3.4992,3.4992,0,3.4593,3.4666,3.4639,3.4697,3.4718,3.4665,3.4735,3.475,3.4781,3.4796,3.4759,3.4848,3.4859,3.4948,3.4983,3.5,3.5016,3.4978,3.5128,3.5142,3.5155,3.52,3.5218,3.4998,3.4997,3.4997,3.4996,0,3.4759,3.481,3.4865,3.4894,3.4921,3.4986,3.4966,3.4997,3.4974,3.4967,3.504,3.505,3.5087,3.5108,3.5087,3.5194,3.5173,3.5133,3.5066,3.5181,3.5222,3.524,3.5006,3.5004,3.5002,3.5001,0,0,3.4961,3.4971,3.4991,3.5002,3.5017,3.5056,3.5116,3.5152,3.5177,3.52,3.5248,3.531,3.5271,3.5291,3.5271,3.5315,3.5422,3.5268,3.5268,3.5293,3.5536,3.5563,3.5584,3.5399,3.5402,3.5405,3.5532,0,3.5099,3.5201,3.5177,3.5278,3.5322,3.5271,3.5323,3.5338,3.5332,3.5368,3.5363,3.5405,3.5354,3.5364,3.5405,3.5401,3.547,3.5392,3.544,3.5442,3.5433,3.5606,3.5636,3.5756,3.5549,3.5552,3.5554,0,3.5274,3.53,3.5406,3.5409,3.5427,3.5474,3.5502,3.5539,3.5553,3.5545,3.5565,3.5536,3.5593,3.5528,3.5605,3.5552,3.557,3.5571,3.5575,3.5576,3.5503,3.5608,3.5795,3.5811,3.558,3.5578,3.5576,0,3.5405,3.5467,3.5536,3.5548,3.5556,3.5589,3.5594,3.5604,3.5625,3.565,3.5663,3.5696,3.5713,3.5737,3.5716,3.5671,3.5795,3.5729,3.5788,3.5788,3.5814,3.5812,3.6003,3.5833,3.5832,3.5832,3.5832,0,3.5559,3.5625,3.5594,3.5637,3.5707,3.5678,3.5748,3.5747,3.5756,3.5796,3.5756,3.5794,3.5765,3.5801,3.5785,3.5848,3.5858,3.5851,3.5846,3.5853,3.5853,3.5862,3.5852,3.5837,3.5836,3.5835,3.5834,0,3.5717,3.57,3.5771,3.5771,3.5772,3.5824,3.5823,3.5862,3.5852,3.5903,3.5914,3.5899,3.5938,3.592,3.5962,3.5951,3.6032,3.6017,3.6026,3.6021,3.6079,3.6072,3.628,3.6303,3.6122,3.6123,3.6125,0,3.5815,3.5863,3.5867,3.589,3.5897,3.5936,3.5956,3.5929,3.5952,3.5969,3.6005,3.604,3.6066,3.6131,3.6124,3.6155,3.6138,3.6208,3.6142,3.6147,3.6134,3.613,3.6133,3.6221,3.6223,3.6225,3.6226,0,3.599,3.5978,3.6009,3.6036,3.6061,3.6081,3.6098,3.612,3.6092,3.612,3.6158,3.6179,3.6219,3.6254,3.628,3.6284,3.625,3.6247,3.6262,3.6268,3.6269,3.6265,3.6058,3.6242,3.624,3.6239,3.6238,3.6238,3.6118,3.6156,3.6163,3.6198,3.6207,3.6223,3.6257,3.6251,3.6282,3.6312,3.6294,3.6338,3.6348,3.6379,3.6387,3.642,3.6392,3.6415,3.6419,3.6424,3.643,3.6267,3.6426,3.6425,3.6425,3.6424,3.6424,0,3.6286,3.6287,3.632,3.6342,3.6369,3.6334,3.635,3.6374,3.6413,3.6424,3.645,3.6492,3.6525,3.6519,3.6548,3.6576,3.656,3.6584,3.658,3.658,3.6456,3.6438,3.6595,3.6595,3.6595,3.6595,3.6595,3.6595,3.6377,3.6438,3.6426,3.6491,3.6492,3.6533,3.6545,3.6558,3.6566,3.6615,3.6641,3.6636,3.664,3.6668,3.6696,3.6693,3.6704,3.6733,3.6724,3.6607,3.659,3.6573,3.6557,3.6736,3.6736,3.6845,3.6846,3.6847]},{"header":{"parameterUnit":"m.s-1","parameterCategory":1,"la1":30.2991,"la2":30.254,"lo1":-89.0895,"lo2":-89.0444,"dy":0.0017,"dx":0.0017,"nx":28,"ny":28,"refTime":"2025-07-18T03:00:00:Z","depth":0,"parameterNumber":3,"parameterNumberName":"V-component_of_WINDS"},"data":[0,0,0,0,0,0,0,0,0,0,0,0,0,0,0,0,0,0,0,0,0,0,0,0,0,0,0,0,0,0,0,0,0,0,0,0,0,0,0,0,0,0,0,0,0,0,0,0,0,0,0,0,0,0,0,0,0,0,3.2603,3.2605,0,3.2801,3.2803,3.2806,3.2823,3.2821,3.2819,3.2817,3.3021,3.3028,3.3036,0,0,0,0,0,0,0,0,0,0,0,0,0,3.2239,3.2246,3.2603,3.2605,3.2608,3.2801,3.2804,3.2806,3.2824,3.2821,3.2818,3.2816,3.3019,3.3027,3.3036,0,0,0,0,0,0,0,0,0,0,0,0,0,3.2413,3.2248,3.2603,3.264,3.2645,3.28,3.2804,3.2807,3.2824,3.2821,3.2818,3.2815,3.3016,3.3026,3.3037,3.3169,0,0,3.3071,3.3076,0,0,0,0,0,0,0,0,3.2403,3.2427,3.2632,3.2638,3.2644,3.2784,3.275,3.2929,3.2825,3.2756,3.2817,3.2813,3.2945,3.2962,3.3006,3.3179,3.3188,3.3072,3.3079,3.3084,3.3087,0,0,0,0,0,0,0,3.2391,3.2418,3.2681,3.2635,3.2642,3.2646,3.2668,3.2784,3.2866,3.2762,3.2764,3.2787,3.2947,3.2995,3.3011,3.3191,3.3072,3.3082,3.3089,3.3093,3.348,3.3483,0,0,0,0,0,0,3.2372,3.2408,3.2675,3.2687,3.2513,3.2656,3.2679,3.2742,3.2865,3.288,3.2789,3.2787,3.2978,3.2998,3.3018,3.3179,3.3084,3.3094,3.3101,3.3476,3.3481,3.3485,0,0,0,0,0,0,3.2364,3.2396,3.2667,3.2548,3.2583,3.2665,3.2736,3.2748,3.2795,3.2885,3.29,3.2823,3.2976,3.3002,3.3131,3.3186,3.3099,3.3109,3.3472,3.3478,3.3483,3.3503,0,0,0,0,0,0,3.2354,3.2393,3.2444,3.2549,3.2589,3.2777,3.2739,3.2754,3.2814,3.2813,3.2921,3.2936,3.2975,3.3114,3.3142,3.32,3.3118,3.3468,3.3475,3.3481,3.3498,3.3509,3.3518,0,0,0,0,0,3.2341,3.2443,3.2447,3.2479,3.2655,3.278,3.2803,3.2847,3.2819,3.2871,3.2928,3.2932,3.3176,3.3127,3.3159,3.3221,3.3464,3.3473,3.3481,3.3494,3.3507,3.3518,0,0,0,0,0,0,3.2343,3.2457,3.2463,3.2602,3.2681,3.2783,3.285,3.286,3.2949,3.2944,3.2994,3.3019,3.3145,3.3196,3.314,3.3354,3.3317,3.3332,3.3316,3.3329,3.3339,3.3324,3.3127,0,0,0,0,0,3.236,3.2452,3.2547,3.266,3.2699,3.2768,3.2824,3.285,3.2935,3.2968,3.3035,3.3117,3.3212,3.3274,3.3366,3.3505,3.3528,3.3563,3.3573,3.3581,3.3593,3.3669,3.3685,3.3511,3.3511,3.3511,0,0,3.2395,3.2469,3.2524,3.2662,3.2727,3.282,3.2796,3.2897,3.2967,3.2984,3.3109,3.3161,3.3255,3.3389,3.3452,3.3436,3.3646,3.3591,3.3597,3.3605,3.3679,3.3695,3.371,3.3517,3.3516,3.3515,0,0,3.2507,3.2573,3.2674,3.2738,3.2836,3.288,3.2904,3.3005,3.3039,3.3165,3.318,3.3264,3.3427,3.3493,3.3548,3.3682,3.3689,3.3711,3.3763,3.3836,3.385,3.3862,3.3909,3.3926,3.3723,3.3723,3.3723,0,3.2539,3.2681,3.2724,3.2824,3.2884,3.2903,3.3005,3.3066,3.3189,3.3229,3.3209,3.3413,3.3478,3.3627,3.3659,3.3704,3.3732,3.3699,3.3844,3.3857,3.3869,3.3915,3.3932,3.3725,3.3725,3.3725,3.3724,0,3.2714,3.2812,3.2882,3.2999,3.3067,3.3167,3.3225,3.3289,3.3309,3.3355,3.3482,3.3561,3.3668,3.3706,3.3727,3.3858,3.3844,3.3834,3.3798,3.3887,3.393,3.3948,3.3728,3.3727,3.3727,3.3726,0,0,3.2835,3.2973,3.2997,3.305,3.3158,3.3234,3.3335,3.344,3.3492,3.3576,3.3661,3.3797,3.3788,3.385,3.3879,3.3943,3.4043,3.3925,3.3928,3.3943,3.419,3.4196,3.4216,3.4048,3.4051,3.4054,3.4181,0,3.2958,3.3137,3.3178,3.3333,3.3423,3.3441,3.3528,3.3604,3.3649,3.3732,3.3783,3.3878,3.3859,3.3896,3.3961,3.4017,3.4093,3.4008,3.4127,3.4131,3.4102,3.4239,3.4247,3.4363,3.4199,3.4202,3.4204,0,3.3126,3.3212,3.3375,3.3469,3.3509,3.3586,3.3684,3.3764,3.3849,3.3878,3.3946,3.3968,3.4073,3.4031,3.4175,3.4117,3.4168,3.4202,3.4208,3.422,3.4172,3.4254,3.4401,3.4418,3.4231,3.4229,3.4227,0,3.3196,3.3353,3.347,3.3514,3.3627,3.3681,3.3731,3.3813,3.3873,3.3959,3.3998,3.4095,3.4148,3.4222,3.4269,3.4235,3.441,3.4372,3.4436,3.4434,3.4472,3.4469,3.4628,3.4505,3.4505,3.4505,3.4504,0,3.3329,3.3428,3.3502,3.3574,3.3684,3.373,3.3838,3.3888,3.3961,3.4042,3.4065,3.4141,3.4198,3.4282,3.432,3.4433,3.4457,3.4482,3.4491,3.448,3.4477,3.4514,3.4507,3.451,3.4508,3.4508,3.4507,0,3.3426,3.348,3.3608,3.3704,3.3731,3.3807,3.389,3.396,3.4005,3.4108,3.4135,3.4206,3.4306,3.436,3.4485,3.451,3.4636,3.4641,3.4607,3.4611,3.4671,3.4664,3.486,3.4887,3.4746,3.4748,3.4749,0,3.3507,3.3583,3.3686,3.3742,3.3792,3.3882,3.3943,3.399,3.4052,3.4154,3.4212,3.4312,3.4395,3.4554,3.4617,3.4712,3.4719,3.4781,3.4734,3.472,3.4719,3.4713,3.4721,3.4789,3.479,3.4791,3.4792,0,3.3645,3.3667,3.3753,3.3848,3.3919,3.3996,3.4073,3.4117,3.4178,3.4246,3.4347,3.4412,3.4539,3.4638,3.4738,3.4789,3.4801,3.4807,3.4826,3.4816,3.4792,3.4804,3.4629,3.4802,3.4801,3.48,3.48,3.4799,3.3736,3.3803,3.3886,3.398,3.4042,3.4113,3.4183,3.4236,3.4322,3.4428,3.4451,3.4558,3.464,3.4776,3.4829,3.4913,3.4901,3.493,3.4937,3.4943,3.4945,3.4779,3.4932,3.4932,3.4932,3.4931,3.4931,0,3.3873,3.3927,3.4013,3.4119,3.4193,3.4196,3.4281,3.4342,3.4436,3.4511,3.4592,3.4708,3.4804,3.4873,3.4971,3.5025,3.5033,3.5049,3.5045,3.5057,3.4951,3.4924,3.5041,3.5041,3.5041,3.5041,3.5041,3.5041,3.3954,3.4067,3.4099,3.4244,3.4297,3.4401,3.4449,3.4514,3.4574,3.4702,3.4781,3.4826,3.4899,3.5002,3.5089,3.5108,3.5142,3.5158,3.5176,3.5076,3.5064,3.5053,3.5028,3.5165,3.5165,3.5275,3.5276,3.5277]}]]